Weather History for Cody, WY

Change the Weather History Date:

Saturday, July 13, 2013

  Actual Average Record
Temperature  
Mean Temperature 73 °F -  
Max Temperature 84 °F 83 °F 100 °F (2005)
Min Temperature 62 °F 54 °F 41 °F (1943)
Cooling Degree Days 8    
Growing Degree Days 23 (Base 50)    
Moisture  
Dew Point 42 °F    
Average Humidity 36    
Maximum Humidity 68    
Minimum Humidity 20    
Precipitation  
Precipitation 0.00 in - - ()
Sea Level Pressure  
Sea Level Pressure 30.08 in    
Wind  
Wind Speed 10 mph (WSW)    
Max Wind Speed 24 mph    
Max Gust Speed 33 mph    
Visibility 10 miles    
Events      
Averages and records for this station are not official NWS values.
T = Trace of Precipitation, MM = Missing Value Source: NWS Daily Summary

Daily Weather History Graph

Daily Weather History Graph

Search for Another Location

Airport:

Trip Planner

Search our weather history database for the weather conditions in past years. The results will help you decide how hot, cold, wet, or windy it might be!

Date:

Astronomy

Jul. 13, 2013 Rise Set
Actual Time 5:43 AM MDT 8:59 PM MDT
Civil Twilight 5:08 AM MDT 9:34 PM MDT
Nautical Twilight 4:22 AM MDT 10:21 PM MDT
Astronomical Twilight 3:24 AM MDT 11:17 PM MDT
Moon 11:18 AM MDT (7/13) 11:25 PM MDT (7/13)
Length of Visible Light 16h 26m
Length of Day
15h 15m
Waxing Crescent, 26% of the Moon is Illuminated
Jul 13
Waxing Crescent
Jul 15
First Quarter
Jul 22
Full
Jul 29
Last Quarter
Aug 6
New

Hourly Weather History & Observations

Time (MDT) Temp. Dew Point Humidity Pressure Visibility Wind Dir Wind Speed Gust Speed Precip Events Conditions
12:15 AM 69.8 °F 35.6 °F 28% 30.01 in 10.0 mi SSE 5.8 mph - N/A   Clear
12:35 AM 71.6 °F 37.4 °F 29% 30.01 in 10.0 mi SW 10.4 mph - N/A   Clear
12:55 AM 71.6 °F 35.6 °F 27% 30.01 in 10.0 mi SW 11.5 mph - N/A   Clear
1:15 AM 69.8 °F 37.4 °F 31% 30.01 in 10.0 mi Calm Calm - N/A   Clear
1:35 AM 66.2 °F 35.6 °F 32% 30.01 in 10.0 mi SSW 13.8 mph - N/A   Clear
1:55 AM 66.2 °F 35.6 °F 32% 30.01 in 10.0 mi SSW 13.8 mph - N/A   Clear
2:15 AM 66.2 °F 35.6 °F 32% 30.01 in 10.0 mi SSW 11.5 mph - N/A   Clear
2:35 AM 64.4 °F 37.4 °F 37% 30.01 in 10.0 mi SSW 13.8 mph - N/A   Clear
3:15 AM 64.4 °F 37.4 °F 37% 30.01 in 10.0 mi SSW 13.8 mph - N/A   Clear
3:35 AM 64.4 °F 35.6 °F 34% 30.01 in 10.0 mi SSW 12.7 mph - N/A   Clear
3:55 AM 64.4 °F 39.2 °F 40% 30.01 in 10.0 mi SW 11.5 mph - N/A   Clear
4:15 AM 64.4 °F 37.4 °F 37% 30.01 in 10.0 mi SW 10.4 mph - N/A   Clear
4:35 AM 64.4 °F 37.4 °F 37% 30.02 in 10.0 mi West 6.9 mph - N/A   Clear
4:55 AM 62.6 °F 37.4 °F 39% 30.03 in 10.0 mi WSW 5.8 mph - N/A   Clear
5:15 AM 64.4 °F 37.4 °F 37% 30.04 in 10.0 mi WSW 6.9 mph - N/A   Clear
5:35 AM 64.4 °F 37.4 °F 37% 30.04 in 10.0 mi SW 8.1 mph - N/A   Clear
5:55 AM 66.2 °F 35.6 °F 32% 30.04 in 10.0 mi SW 9.2 mph - N/A   Clear
6:15 AM 64.4 °F 37.4 °F 37% 30.04 in 10.0 mi WSW 5.8 mph - N/A   Clear
6:35 AM 66.2 °F 37.4 °F 35% 30.05 in 10.0 mi Calm Calm - N/A   Clear
6:55 AM 68.0 °F 37.4 °F 33% 30.05 in 10.0 mi West 3.5 mph - N/A   Clear
7:15 AM 69.8 °F 39.2 °F 33% 30.06 in 10.0 mi SSW 8.1 mph - N/A   Clear
7:35 AM 69.8 °F 41.0 °F 35% 30.06 in 10.0 mi WSW 3.5 mph - N/A   Clear
7:55 AM 73.4 °F 39.2 °F 29% 30.06 in 10.0 mi SSW 3.5 mph - N/A   Clear
8:15 AM 75.2 °F 39.2 °F 27% 30.06 in 10.0 mi WSW 8.1 mph - N/A   Clear
8:35 AM 77.0 °F 39.2 °F 26% 30.06 in 10.0 mi SW 12.7 mph - N/A   Clear
8:55 AM 75.2 °F 39.2 °F 27% 30.06 in 10.0 mi SW 13.8 mph - N/A   Clear
9:15 AM 75.2 °F 37.4 °F 25% 30.06 in 10.0 mi SW 13.8 mph - N/A   Clear
9:35 AM 78.8 °F 39.2 °F 24% 30.06 in 10.0 mi SW 12.7 mph - N/A   Clear
9:55 AM 80.6 °F 39.2 °F 23% 30.05 in 10.0 mi SW 11.5 mph - N/A   Clear
10:15 AM 80.6 °F 41.0 °F 24% 30.05 in 10.0 mi SW 9.2 mph - N/A   Clear
10:35 AM 82.4 °F 39.2 °F 21% 30.05 in 10.0 mi WSW 3.5 mph - N/A   Clear
10:55 AM 84.2 °F 39.2 °F 20% 30.05 in 10.0 mi SW 4.6 mph - N/A   Clear
11:15 AM 84.2 °F 41.0 °F 22% 30.05 in 10.0 mi WSW 3.5 mph - N/A   Clear
11:35 AM 84.2 °F 42.8 °F 23% 30.04 in 10.0 mi West 8.1 mph - N/A   Clear
11:55 AM 84.2 °F 39.2 °F 20% 30.05 in 10.0 mi WSW 5.8 mph - N/A   Mostly Cloudy
12:15 PM 80.6 °F 41.0 °F 24% 30.07 in 10.0 mi WSW 19.6 mph 33.4 mph N/A   Overcast
12:35 PM 80.6 °F 39.2 °F 23% 30.08 in 10.0 mi SW 19.6 mph 32.2 mph N/A   Mostly Cloudy
12:55 PM 78.8 °F 39.2 °F 24% 30.09 in 10.0 mi WSW 16.1 mph 32.2 mph N/A   Mostly Cloudy
1:15 PM 78.8 °F 39.2 °F 24% 30.08 in 10.0 mi SW 20.7 mph 29.9 mph N/A   Scattered Clouds
1:35 PM 78.8 °F 39.2 °F 24% 30.08 in 10.0 mi SW 17.3 mph 26.5 mph N/A   Clear
1:55 PM 78.8 °F 39.2 °F 24% 30.08 in 10.0 mi SW 16.1 mph 27.6 mph N/A   Clear
2:15 PM 78.8 °F 41.0 °F 26% 30.08 in 10.0 mi SW 21.9 mph 26.5 mph N/A   Partly Cloudy
2:35 PM 80.6 °F 41.0 °F 24% 30.08 in 10.0 mi SW 19.6 mph 26.5 mph N/A   Clear
2:55 PM 80.6 °F 41.0 °F 24% 30.07 in 10.0 mi SW 15.0 mph 26.5 mph N/A   Clear
3:15 PM 82.4 °F 42.8 °F 25% 30.08 in 10.0 mi SW 13.8 mph 19.6 mph N/A   Partly Cloudy
3:35 PM 82.4 °F 41.0 °F 23% 30.07 in 10.0 mi WSW 10.4 mph 17.3 mph N/A   Clear
3:55 PM 82.4 °F 42.8 °F 25% 30.07 in 10.0 mi SW 12.7 mph 17.3 mph N/A   Clear
4:15 PM 82.4 °F 41.0 °F 23% 30.07 in 10.0 mi WSW 8.1 mph - N/A   Clear
4:35 PM 82.4 °F 41.0 °F 23% 30.07 in 10.0 mi SW 9.2 mph - N/A   Clear
4:55 PM 82.4 °F 39.2 °F 21% 30.07 in 10.0 mi WSW 9.2 mph - N/A   Clear
5:15 PM 78.8 °F 53.6 °F 42% 30.07 in 10.0 mi North 11.5 mph - N/A   Clear
5:35 PM 78.8 °F 51.8 °F 39% 30.07 in 10.0 mi NE 11.5 mph - N/A   Clear
5:55 PM 77.0 °F 51.8 °F 41% 30.08 in 10.0 mi North 8.1 mph - N/A   Clear
6:15 PM 77.0 °F 51.8 °F 41% 30.09 in 10.0 mi North 20.7 mph 26.5 mph N/A   Clear
6:35 PM 73.4 °F 55.4 °F 53% 30.11 in 10.0 mi North 23.0 mph 32.2 mph N/A   Clear
6:55 PM 71.6 °F 53.6 °F 53% 30.12 in 10.0 mi North 19.6 mph 27.6 mph N/A   Clear
7:15 PM 69.8 °F 53.6 °F 56% 30.13 in 10.0 mi North 24.2 mph 31.1 mph N/A   Clear
7:35 PM 69.8 °F 51.8 °F 53% 30.14 in 10.0 mi NNW 16.1 mph 28.8 mph N/A   Clear
7:55 PM 69.8 °F 51.8 °F 53% 30.15 in 10.0 mi NW 16.1 mph 25.3 mph N/A   Clear
8:15 PM 68.0 °F 51.8 °F 56% 30.16 in 10.0 mi NW 16.1 mph 25.3 mph N/A   Clear
8:35 PM 66.2 °F 51.8 °F 60% 30.17 in 10.0 mi NNW 11.5 mph - N/A   Clear
8:55 PM 66.2 °F 50.0 °F 56% 30.18 in 10.0 mi NW 11.5 mph - N/A   Clear
9:15 PM 64.4 °F 48.2 °F 56% 30.19 in 10.0 mi NW 9.2 mph 18.4 mph N/A   Clear
9:35 PM 64.4 °F 48.2 °F 56% 30.20 in 10.0 mi NNW 10.4 mph - N/A   Clear
9:55 PM 64.4 °F 48.2 °F 56% 30.21 in 10.0 mi NNW 10.4 mph 18.4 mph N/A   Clear
10:15 PM 64.4 °F 48.2 °F 56% 30.22 in 10.0 mi NW 9.2 mph 17.3 mph N/A   Clear
10:35 PM 64.4 °F 50.0 °F 59% 30.22 in 10.0 mi NW 9.2 mph - N/A   Clear
10:55 PM 62.6 °F 50.0 °F 63% 30.22 in 10.0 mi NW 10.4 mph - N/A   Clear
11:15 PM 62.6 °F 51.8 °F 68% 30.22 in 10.0 mi NW 10.4 mph - N/A   Clear
11:35 PM 62.6 °F 51.8 °F 68% 30.23 in 10.0 mi WNW 13.8 mph 18.4 mph N/A   Clear
11:55 PM 62.6 °F 51.8 °F 68% 30.23 in 10.0 mi NW 13.8 mph 17.3 mph N/A   Partly Cloudy